Tarpon — WCD2519 — position and weather

sailwx.info

Track history (hours):
 
Tides and Currents Weather Stations Pressure Air Temp Water Temp Dewpoint Dewpoint Depression Visibility Wind Speed Wind Dir Waves Ship Positions

Tarpon

More information available from US FCC via Universal Licensing System and Coast Guard Vessel Documentation Center.

Last reported at 2013-Dec-24 07:32 UTC. Time now 2014-Sep-16 19:34 UTC.
Position N 26°38' W 080°01'.
Warning: this ship's position is months out of date.

Date/timePositionNaut miles runAvg speedWind from/ knotsBaromVisibWave heightAir tempDewpointWater temp
2013-Dec-24 07:32N 26°38' W 080°01'  
2013-Dec-19 00:33N 39°19' W 075°24'1111.0
2013-Dec-18 23:33N 39°27' W 075°33'1111.1
2013-Dec-18 22:33N 39°38' W 075°34'1311.2
2013-Dec-18 21:21N 39°49' W 075°24'4 0.2
2013-Dec-18 03:09N 39°51' W 075°20'610.8
2013-Dec-18 02:34N 39°48' W 075°26'1010.1
2013-Dec-18 01:33N 39°39' W 075°33'9 9.1
2013-Dec-18 00:33N 39°30' W 075°33'9 8.8
2013-Dec-17 23:33N 39°22' W 075°28'  
Track history (hours):
 
Tides and Currents Weather Stations Pressure Air Temp Water Temp Dewpoint Dewpoint Depression Visibility Wind Speed Wind Dir Waves Ship Positions

Tarpon

More information available from US FCC via Universal Licensing System and Coast Guard Vessel Documentation Center.

Last reported at 2013-Dec-24 07:32 UTC. Time now 2014-Sep-16 19:34 UTC.
Position N 26°38' W 080°01'.
Warning: this ship's position is months out of date.

Date/timePositionNaut miles runAvg speedWind from/ knotsBaromVisibWave heightAir tempDewpointWater temp
2013-Dec-24 07:32N 26°38' W 080°01'  
2013-Dec-19 00:33N 39°19' W 075°24'1111.0
2013-Dec-18 23:33N 39°27' W 075°33'1111.1
2013-Dec-18 22:33N 39°38' W 075°34'1311.2
2013-Dec-18 21:21N 39°49' W 075°24'4 0.2
2013-Dec-18 03:09N 39°51' W 075°20'610.8
2013-Dec-18 02:34N 39°48' W 075°26'1010.1
2013-Dec-18 01:33N 39°39' W 075°33'9 9.1
2013-Dec-18 00:33N 39°30' W 075°33'9 8.8
2013-Dec-17 23:33N 39°22' W 075°28'  

Dump ship's entire track history